Weather History for Clemson, SC

Change the Weather History Date:

Friday, March 29, 2013

  Actual Average Record
Temperature  
Mean Temperature 47 °F -  
Max Temperature 62 °F 67 °F 84 °F (2012)
Min Temperature 34 °F 45 °F 23 °F (1937)
Degree Days  
Heating Degree Days 18    
Moisture  
Dew Point 28 °F    
Average Humidity 44    
Maximum Humidity 79    
Minimum Humidity 24    
Precipitation  
Precipitation 0.00 in - - ()
Sea Level Pressure  
Sea Level Pressure 30.29 in    
Wind  
Wind Speed 2 mph (NNW)    
Max Wind Speed 7 mph    
Max Gust Speed -    
Visibility 10 miles    
Events      
Averages and records for this station are not official NWS values.
T = Trace of Precipitation, MM = Missing Value Source: NWS Daily Summary

Daily Weather History Graph

Daily Weather History Graph

Search for Another Location

Airport:

Trip Planner

Search our weather history database for the weather conditions in past years. The results will help you decide how hot, cold, wet, or windy it might be!

Date:

Astronomy

Mar. 29, 2013 Rise Set
Actual Time 7:22 AM EDT 7:50 PM EDT
Civil Twilight 6:57 AM EDT 8:15 PM EDT
Nautical Twilight 6:27 AM EDT 8:45 PM EDT
Astronomical Twilight 5:57 AM EDT 9:15 PM EDT
Moon 10:40 PM EDT 8:37 AM EDT
Length of Visible Light 13h 18m
Length of Day
12h 28m
Waning Gibbous, 93% of the Moon is Illuminated
Mar 29
Waning Gibbous
Apr 3
Last Quarter
Apr 10
New
Apr 18
First Quarter
Apr 25
Full

Hourly Weather History & Observations

Time (EDT) Temp. Windchill Dew Point Humidity Pressure Visibility Wind Dir Wind Speed Gust Speed Precip Events Conditions
12:54 AM 48.9 °F - 19.0 °F 31% 30.30 in 10.0 mi Calm Calm - N/A   Clear
1:54 AM 45.0 °F - 21.9 °F 40% 30.31 in 10.0 mi Calm Calm - N/A   Clear
2:54 AM 44.1 °F - 27.0 °F 51% 30.31 in 10.0 mi Calm Calm - N/A   Clear
3:54 AM 42.1 °F - 27.0 °F 55% 30.31 in 10.0 mi Calm Calm - N/A   Clear
4:54 AM 41.0 °F 39.0 °F 23.0 °F 49% 30.31 in 10.0 mi NW 3.5 mph - N/A   Clear
5:54 AM 39.9 °F 37.8 °F 28.0 °F 63% 30.32 in 10.0 mi NNW 3.5 mph - N/A   Clear
6:54 AM 34.0 °F - 27.0 °F 75% 30.33 in 10.0 mi Calm Calm - N/A   Clear
7:54 AM 37.9 °F 35.5 °F 32.0 °F 79% 30.35 in 10.0 mi NW 3.5 mph - N/A   Clear
8:54 AM 42.1 °F - 33.1 °F 70% 30.35 in 10.0 mi Calm Calm - N/A   Clear
9:54 AM 48.9 °F - 27.0 °F 43% 30.37 in 10.0 mi Calm Calm - N/A   Clear
10:54 AM 53.1 °F - 25.0 °F 34% 30.35 in 10.0 mi Variable 4.6 mph - N/A   Clear
11:54 AM 54.0 °F - 24.1 °F 31% 30.35 in 10.0 mi Variable 3.5 mph - N/A   Overcast
12:54 PM 57.9 °F - 21.9 °F 25% 30.32 in 10.0 mi Variable 4.6 mph - N/A   Mostly Cloudy
1:54 PM 57.9 °F - 21.0 °F 24% 30.29 in 10.0 mi WSW 5.8 mph - N/A   Overcast
2:54 PM 57.9 °F - 23.0 °F 26% 30.27 in 10.0 mi West 6.9 mph - N/A   Overcast
3:54 PM 60.1 °F - 23.0 °F 24% 30.25 in 10.0 mi Variable 3.5 mph - N/A   Overcast
4:54 PM 60.1 °F - 25.0 °F 26% 30.24 in 10.0 mi Calm Calm - N/A   Scattered Clouds
5:54 PM 60.1 °F - 30.0 °F 32% 30.23 in 10.0 mi North 5.8 mph - N/A   Mostly Cloudy
6:54 PM 59.0 °F - 32.0 °F 36% 30.23 in 10.0 mi NNE 3.5 mph - N/A   Overcast
7:54 PM 57.0 °F - 33.1 °F 40% 30.23 in 10.0 mi Calm Calm - N/A   Overcast
8:54 PM 55.0 °F - 34.0 °F 45% 30.23 in 10.0 mi ENE 4.6 mph - N/A   Overcast
9:54 PM 54.0 °F - 37.0 °F 53% 30.23 in 10.0 mi Calm Calm - N/A   Overcast
10:54 PM 53.1 °F - 37.0 °F 55% 30.23 in 10.0 mi Calm Calm - N/A   Overcast
11:54 PM 52.0 °F - 37.9 °F 59% 30.23 in 10.0 mi Calm Calm - N/A   Overcast